Satellite-Ground Cal/Val Site Overpasses Predictions

Prediction of Satellite NPP Overpassing Cal/Val Site: Antarctic Dome C

Ground Cal/Val Site Location: Latitude: -75.10, Longitude: 123.35; Satellite-Ground Site NADIR distance within 100 km.

Table of predicted overpasses for the next 14.0 days since TLE Epoch: 5/14/2022
Interval Starting Time Ending Time Minimum Distance Time Minimum Distance (km)
1 05/14/2022 14:48:25 05/14/2022 14:48:54 05/14/2022 14:48:40 17.39
2 05/16/2022 07:31:13 05/16/2022 07:31:43 05/16/2022 07:31:28 3.20
3 05/19/2022 14:54:38 05/19/2022 14:55:07 05/19/2022 14:54:52 18.57
4 05/20/2022 14:35:55 05/20/2022 14:36:08 05/20/2022 14:36:02 88.37
5 05/21/2022 07:37:26 05/21/2022 07:37:54 05/21/2022 07:37:40 32.51
6 05/22/2022 07:18:40 05/22/2022 07:18:58 05/22/2022 07:18:49 77.78
7 05/24/2022 15:00:51 05/24/2022 15:01:16 05/24/2022 15:01:03 55.09
8 05/25/2022 14:42:01 05/25/2022 14:42:26 05/25/2022 14:42:13 54.01
9 05/26/2022 07:43:41 05/26/2022 07:44:02 05/26/2022 07:43:52 67.35
